Location: Erp
(42.9417°N, 1.2009°E)
Time: 19:32:30
(UTC+00:00)

SL-08 R/B - Pass Details

Date: 12 January 2026
Orbit: 950 x 1017 km, 82.9° (Epoch: 13 February)

Event Time Altitude Azimuth Distance (km) Brightness Sun altitude
Rises 19:06:09 0° 352° (N) 3,744 7.6 -25.7°
Reaches altitude 10° 19:08:41 10° 353° (N) 2,796 6.9 -26.2°
Maximum altitude 19:15:09 88° 81° (E) 1,022 4.4 -27.3°
Drops below altitude 10° 19:21:36 10° 173° (S) 2,793 6.8 -28.5°
Sets 19:24:08 0° 174° (S) 3,738 7.5 -29.0°
